{"data":{"norad_id":67016,"intl_designator":"2025-293P","name":"STARLINK-36120","alt_names":[],"object_type":"PAYLOAD","status":"ACTIVE","operator":null,"country":"US","launch_date":"2025-12-10","launch_site_code":"AFWTR","launch_vehicle":null,"mission":null,"orbit_class":"UNKNOWN","rcs_meters":null,"size_class":null,"mass_kg":null,"dimensions":null,"purposes":["comms"],"wikipedia_slug":null,"has_3d_model":false,"image_url":null,"decayed_at":null,"tle_current":{"epoch":"2026-05-25T00:56:22.496064Z","epoch_age_seconds":68334,"freshness":"FRESH","line1":"1 67016U 25293P   26145.03914926  .00002449  00000+0  21297-3 0  9995","line2":"2 67016  70.0007 261.9722 0003648 268.7021  91.3720 14.98337482 26326","mean_motion":14.98337482,"eccentricity":0.0003648,"inclination_deg":70.0007,"raan_deg":261.9722,"arg_perigee_deg":268.7021,"mean_anomaly_deg":91.372,"bstar":0.00021297,"rev_number":2632,"period_min":96.106519212072,"perigee_km":569.49733164679,"apogee_km":574.56817549899,"semimajor_km":6950.1697535729,"source":"CELESTRAK","updated_at":"2026-05-25T13:38:21.432330Z"}}}